Time,TemperatureF,DewpointF,PressureIn,WindDirection,WindDirectionDegrees,WindSpeedMPH,WindSpeedGustMPH,Humidity,HourlyPrecipIn,Conditions,Clouds,dailyrainin,SoftwareType,DateUTC
2018-02-21 00:11:00,71.6,69.0,30.31,ESE,119,5.0,10.0,91,0.00,,,0.00,weatherlink.com 1.10,2018-02-21 05:11:00,
2018-02-21 00:26:00,71.5,69.0,30.31,East,98,8.0,11.0,91,0.00,,,0.00,weatherlink.com 1.10,2018-02-21 05:26:00,
2018-02-21 00:41:00,71.3,69.0,30.31,ESE,117,7.0,10.0,92,0.00,,,0.00,weatherlink.com 1.10,2018-02-21 05:41:00,
2018-02-21 00:56:00,71.1,69.0,30.31,ESE,120,6.0,11.0,92,0.00,,,0.00,weatherlink.com 1.10,2018-02-21 05:56:00,
2018-02-21 01:11:00,70.9,69.0,30.31,East,89,5.0,10.0,93,0.00,,,0.00,weatherlink.com 1.10,2018-02-21 06:11:00,
2018-02-21 01:26:00,70.9,69.0,30.30,ESE,104,5.0,14.0,93,0.00,,,0.00,weatherlink.com 1.10,2018-02-21 06:26:00,
2018-02-21 01:41:00,70.8,69.0,30.31,East,92,5.0,12.0,93,0.00,,,0.00,weatherlink.com 1.10,2018-02-21 06:41:00,
2018-02-21 01:56:00,70.7,69.0,30.30,ESE,113,6.0,10.0,94,0.00,,,0.00,weatherlink.com 1.10,2018-02-21 06:56:00,
2018-02-21 02:11:00,70.6,69.0,30.30,East,96,7.0,12.0,94,0.00,,,0.00,weatherlink.com 1.10,2018-02-21 07:11:00,
2018-02-21 02:26:00,70.3,69.0,30.30,ESE,104,10.0,11.0,94,0.00,,,0.00,weatherlink.com 1.10,2018-02-21 07:26:00,
2018-02-21 02:41:00,70.3,69.0,30.30,East,94,7.0,10.0,94,0.00,,,0.00,weatherlink.com 1.10,2018-02-21 07:41:00,
2018-02-21 02:56:00,70.2,69.0,30.30,East,101,2.0,9.0,95,0.00,,,0.00,weatherlink.com 1.10,2018-02-21 07:56:00,
2018-02-21 03:12:00,70.1,69.0,30.29,ESE,103,3.0,13.0,95,0.00,,,0.00,weatherlink.com 1.10,2018-02-21 08:12:00,
2018-02-21 03:26:00,69.9,69.0,30.30,East,95,3.0,9.0,95,0.00,,,0.00,weatherlink.com 1.10,2018-02-21 08:26:00,
2018-02-21 03:45:00,69.8,68.0,30.30,East,94,3.0,11.0,95,0.00,,,0.00,weatherlink.com 1.10,2018-02-21 08:45:00,
2018-02-21 03:56:00,69.8,68.0,30.30,East,99,6.0,11.0,95,0.00,,,0.00,weatherlink.com 1.10,2018-02-21 08:56:00,
2018-02-21 04:11:00,69.7,69.0,30.30,ESE,106,7.0,12.0,96,0.00,,,0.00,weatherlink.com 1.10,2018-02-21 09:11:00,
2018-02-21 04:26:00,69.6,69.0,30.30,ESE,112,2.0,9.0,96,0.00,,,0.00,weatherlink.com 1.10,2018-02-21 09:26:00,
2018-02-21 04:41:00,69.5,68.0,30.30,East,83,3.0,9.0,96,0.00,,,0.00,weatherlink.com 1.10,2018-02-21 09:41:00,
2018-02-21 04:56:00,69.3,68.0,30.30,East,86,4.0,8.0,96,0.00,,,0.00,weatherlink.com 1.10,2018-02-21 09:56:00,